Regional Weather Roundup
Issued by NWS

Home | Current Version | Previous Version | Graphics & Text | Print | Product List | Glossary Off
Versions: 1 2 3 4 5 6 7 8 9 10 11 12 13 14 15 16 17 18 19 20 21 22 23 24 25 26 27 28 29 30 31 32 33 34 35 36 37 38 39 40 41 42 43 44 45 46 47 48 49 50

709
ASUS43 KMKX 252220
RWRWI

WISCONSIN REGIONAL WEATHER ROUNDUP
NATIONAL WEATHER SERVICE MILWAUKEE/SULLIVAN WI
500 PM CDT THU MAY 25 2017

NOTE: "FAIR" INDICATES FEW OR NO CLOUDS BELOW 12,000 FEET WITH NO
SIGNIFICANT WEATHER AND/OR OBSTRUCTIONS TO VISIBILITY.

WIZ001-002-006>008-014>016-023>028-252300-
NORTHWEST WISCONSIN

CITY           SKY/WX    TMP DP  RH WIND       PRES   REMARKS
SUPERIOR ARPT  NOT AVBL
ASHLAND        SUNNY     59  45  59 N12       29.70S
HAYWARD        MOSUNNY   71  45  39 S10       29.66S
SIREN          MOSUNNY   71  48  44 S7        29.66S
CUMBERLAND     PTSUNNY   66  50  55 S9        29.67S
RICE LAKE      PTSUNNY   69  47  44 S9        29.68R
CHETEK         MOSUNNY   70  52  52 SW6       29.67R
LADYSMITH      SUNNY     73  49  42 S3        29.67S
EAU CLAIRE     MOSUNNY   72  50  45 SW8       29.65R
MENOMONIE      CLOUDY    71  49  45 S9        29.66S
NEW RICHMOND   MOSUNNY   69  49  49 S9        29.66S
OSCEOLA        MOSUNNY   69  50  50 SE10G16   29.67F
$$

WIZ003>005-009-010-017-018-252300-
NORTH CENTRAL WISCONSIN

CITY           SKY/WX    TMP DP  RH WIND       PRES   REMARKS
MANITOWISH WTR PTSUNNY   71  46  40 E3        29.67F
ARBOR VITAE    SUNNY     72  45  38 CALM      29.67S
WOODRUFF       SUNNY     72  45  38 CALM      29.67S
RHINELANDER    MOSUNNY   73  46  38 E9        29.68S
EAGLE RIVER    MOSUNNY   67  43  40 E6        29.68S
LAND O LAKES   MOSUNNY   71  44  38 E9        29.70S
PHILLIPS       PTSUNNY   70  47  44 S6        29.66S
TOMAHAWK       MOSUNNY   69  48  47 CALM      29.67S
MEDFORD        SUNNY     69  51  54 S8        29.67R
MERRILL        PTSUNNY   72  49  44 CALM      29.67S
$$

WIZ029-030-035-036-043>047-252300-
CENTRAL WISCONSIN

CITY           SKY/WX    TMP DP  RH WIND       PRES   REMARKS
WAUSAU         PTSUNNY   72  49  44 SW5       29.64F
MOSINEE        MOSUNNY   72  46  40 SW5       29.67F
MARSHFIELD     MOSUNNY   71  50  47 SE6       29.65F
STEVENS POINT  MOSUNNY   69  48  47 CALM      29.67S
WAUPACA        MOSUNNY   73  50  43 SE3       29.67S
WAUTOMA        MOSUNNY   70  51  51 SE7       29.67S
WISC RAPIDS    MOSUNNY   73  48  41 VRB5      29.67S
CAMP DOUGLAS   MOSUNNY   72  53  52 E7        29.66S
$$

WIZ011>013-019>022-031-037>040-048>050-252300-
NORTHEAST WISCONSIN

CITY           SKY/WX    TMP DP  RH WIND       PRES   REMARKS
ANTIGO         MOSUNNY   68  51  53 SE6       29.68S
SHAWANO        PTSUNNY   74  52  45 E10       29.67S
OCONTO         MOSUNNY   68  49  50 E12       29.66S
STURGEON BAY   SUNNY     66  52  60 E8        29.67S
GREEN BAY      SUNNY     69  53  56 NE16      29.67S
MANITOWOC      SUNNY     64  51  62 NE13      29.67F
APPLETON       MOSUNNY   68  45  42 NE14G21   29.65F
CLINTONVILLE   MOSUNNY   70  50  49 SE3       29.66S
OSHKOSH        SUNNY     68  52  56 NE13      29.67S
$$

WIZ032>034-041-042-053>061-252300-
SOUTHWEST WISCONSIN

CITY           SKY/WX    TMP DP  RH WIND       PRES   REMARKS
LA CROSSE      SUNNY     74  55  51 SW9       29.65S
SPARTA         PTSUNNY   71  53  52 S8        29.66S
VIROQUA        MOSUNNY   71  50  48 MISG      29.68S
BOSCOBEL       MOSUNNY   71  51  49 VRB3      29.67S
PRAIRIE DU CHI MOSUNNY   71  50  46 SW3       29.66S
PLATTEVILLE    PTSUNNY   69  56  63 SE5       29.69R
$$

WIZ056-057-062-063-064-067-068-252300-
SOUTH CENTRAL WISCONSIN

CITY           SKY/WX    TMP DP  RH WIND       PRES   REMARKS
REEDSBURG      MOSUNNY   71  53  51 S3        29.66S
BARABOO/DELLS  MOSUNNY   70  51  50 CALM      29.67S
LONE ROCK      SUNNY     72  52  49 VRB3      29.66S
MINERAL POINT  SUNNY     72  54  53 CALM      29.68S
MADISON        MOSUNNY   69  52  54 E6        29.66S
MIDDLETON      PTSUNNY   72  53  50 E6        29.67F
WATERTOWN      PTSUNNY   67  53  61 NW5       29.66S
MONROE         SUNNY     70  50  49 NE3       29.68S
JANESVILLE     PTSUNNY   72  52  49 N12       29.67S
$$

WIZ051-052-058>065-066-070>072-252300-
SOUTHEAST WISCONSIN

CITY           SKY/WX    TMP DP  RH WIND       PRES   REMARKS
MILWAUKEE      MOSUNNY   61  52  72 N14G23    29.67R
WAUKESHA       MOSUNNY   68  48  49 NE9       29.66S
MILWAUKEE/TIMM MOSUNNY  N/A N/A N/A NE10      29.67R
RACINE         SUNNY     60  50  69 N10       29.68S
KENOSHA        MOSUNNY   65  51  60 NE10      29.67R
FOND DU LAC    SUNNY     69  51  52 N10       29.67S
SHEBOYGAN      MOSUNNY   63  55  75 NE12      29.67S
WEST BEND      CLOUDY    63  50  63 NE8       29.66R
JUNEAU         CLOUDY    66  53  61 N6        29.68R
$$

LSZ147-162-252300-
LAKE SUPERIOR

STATION/POSITION TIME  TEMP    WIND        PRES    WAVE
                       AIR SEA DIR/SP/G            HT/PER
                 (UTC) (F)     (DEG/KT/KT) (MB)    (FT/S)
$$

LMZ867-665-643>646-252300-
LAKE MICHIGAN

STATION/POSITION TIME  TEMP    WIND        PRES    WAVE
                       AIR SEA DIR/SP/G            HT/PER
                 (UTC) (F)     (DEG/KT/KT) (MB)    (FT/S)
$$

TC  - TEMPERATURE IN CELSIUS
VSB - VISIBILITY IN STATUTE MILES
WCI - WIND CHILL INDEX
HX  - HEAT INDEX





USA.gov is the U.S. government's official web portal to all federal, state and local government web resources and services.